TimePDT,TemperatureF,Dew PointF,Humidity,Sea Level PressureIn,VisibilityMPH,Wind Direction,Wind SpeedMPH,Gust SpeedMPH,PrecipitationIn,Events,Conditions,WindDirDegrees,DateUTC
12:53 AM,52.0,37.0,57,30.00,10.0,Calm,Calm,-,N/A,,Clear,0,2013-06-08 07:53:00
1:53 AM,51.1,37.0,59,29.99,10.0,SSW,3.5,-,N/A,,Clear,200,2013-06-08 08:53:00
2:53 AM,48.9,35.1,59,30.01,10.0,Calm,Calm,-,N/A,,Clear,0,2013-06-08 09:53:00
3:53 AM,48.0,36.0,63,29.99,10.0,Calm,Calm,-,N/A,,Clear,0,2013-06-08 10:53:00
4:53 AM,46.0,36.0,68,30.00,10.0,SSE,4.6,-,N/A,,Clear,160,2013-06-08 11:53:00
5:53 AM,46.0,35.1,66,30.01,10.0,Calm,Calm,-,N/A,,Clear,0,2013-06-08 12:53:00
6:53 AM,50.0,37.0,61,30.01,10.0,Calm,Calm,-,N/A,,Clear,0,2013-06-08 13:53:00
7:53 AM,62.1,44.1,52,30.01,10.0,ENE,4.6,-,N/A,,Clear,60,2013-06-08 14:53:00
8:53 AM,69.1,44.1,40,30.00,10.0,Calm,Calm,-,N/A,,Clear,0,2013-06-08 15:53:00
9:53 AM,75.9,43.0,31,29.99,10.0,NNE,6.9,-,N/A,,Clear,30,2013-06-08 16:53:00
10:53 AM,78.1,39.9,25,29.99,10.0,NNE,6.9,-,N/A,,Clear,20,2013-06-08 17:53:00
11:53 AM,82.0,41.0,23,29.98,10.0,Calm,Calm,-,N/A,,Clear,0,2013-06-08 18:53:00
12:53 PM,82.9,39.9,22,29.98,10.0,Variable,4.6,-,N/A,,Clear,0,2013-06-08 19:53:00
1:53 PM,84.9,39.0,20,29.97,10.0,Variable,4.6,-,N/A,,Clear,0,2013-06-08 20:53:00
2:53 PM,86.0,37.9,18,29.96,10.0,Variable,4.6,-,N/A,,Clear,0,2013-06-08 21:53:00
3:53 PM,86.0,42.1,21,29.96,10.0,NNE,10.4,-,N/A,,Clear,30,2013-06-08 22:53:00
4:53 PM,87.1,39.0,18,29.94,10.0,NNE,5.8,-,N/A,,Clear,20,2013-06-08 23:53:00
5:53 PM,75.9,44.1,32,29.97,10.0,Calm,Calm,-,N/A,,Clear,0,2013-06-09 00:53:00
6:53 PM,75.9,50.0,40,29.97,10.0,Calm,Calm,-,N/A,,Clear,0,2013-06-09 01:53:00
7:53 PM,73.0,46.0,38,29.95,10.0,Calm,Calm,-,N/A,,Clear,0,2013-06-09 02:53:00
8:53 PM,69.1,51.1,53,29.95,10.0,Calm,Calm,-,N/A,,Clear,0,2013-06-09 03:53:00
9:53 PM,64.9,48.0,54,29.96,10.0,South,4.6,-,N/A,,Clear,190,2013-06-09 04:53:00
10:53 PM,63.0,46.9,56,29.96,10.0,Calm,Calm,-,N/A,,Clear,0,2013-06-09 05:53:00
11:53 PM,61.0,46.0,58,29.95,10.0,Calm,Calm,-,N/A,,Clear,0,2013-06-09 06:53:00